Submittal Forms
Current Contests
Recent Contests

Club Activity Tracker - Tennessee Contest Group (from club selection on form)

Recent postings for the selected club or group are listed below. Other than the call used, all calls listed are only those associated with the club or group. Click on a call to see the details of the posting.
Status Key: new=new posting, update=update prior posting, move=change club/group, delete=delete prior posting.

Sort by   for past

TimestampCallContestClassPowerScoreStatus
2020-05-28 04:09:32WK9MCWopsTSingle OpHP960new5615
2020-05-28 04:05:28N8UMCWopsTSingle OpHP11,025new5615
2020-05-28 04:04:35K3FHCWopsTSingle OpHP784new5615
2020-05-28 04:03:12N4ZZCWopsTSingle OpLP24,108new5615
2020-05-28 04:02:11K4TZCWopsTSingle OpLP1,806new5615
2020-05-28 04:02:09K4ROCWopsTSingle OpHP35,432new5615
2020-05-28 04:01:40AC6ZMCWopsTSingle OpHP7,921new5615
2020-05-28 04:00:51AD4EBCWopsTSingle OpHP26,313new5615
2020-05-28 03:26:33K1GUCWopsTSingle OpHP1,089new5615
2020-05-27 22:00:20K3FHCWopsTSingle OpHP1,482new5614
 
2020-05-27 21:58:12K3FHCWopsTSingle OpHP289new5613
2020-05-27 21:14:29W4UTCWopsTSingle OpHP3,776new5614
2020-05-27 21:12:20AC6ZMCWopsTSingle OpHP5,476new5614
2020-05-27 21:01:47W4NZCWopsTSingle OpHP3,600new5613
2020-05-27 20:43:04K0EJCWopsTSingle OpHP20,128new5614
2020-05-27 20:38:56N8UMCWopsTSingle OpHP9,579new5614
2020-05-27 20:10:36NS4XCWopsTSingle OpHP4,690new5614
2020-05-27 20:05:24NS4XCWopsTSingle OpHP1,521new5613
2020-05-27 20:03:31W3TBCWopsTSingle OpHP2,704new5614
2020-05-27 20:03:07N4ZZCWopsTSingle OpLP24,528new5614
 
2020-05-27 20:02:16K4TZCWopsTSingle OpLP2,500new5614
2020-05-27 20:02:09K4ROCWopsTSingle OpHP39,083new5614
2020-05-27 20:01:28K1GUCWopsTSingle OpHP16,900new5614
2020-05-27 20:01:05AD4EBCWopsTSingle OpHP36,260new5614
2020-05-27 14:35:46K4TZCWopsTSingle OpLP5,184new5613
2020-05-27 14:18:28K4ROCWopsTSingle OpHP46,945new5613
2020-05-27 14:04:45W3TBCWopsTSingle OpHP2,601new5613
2020-05-27 14:04:27N4ZZCWopsTSingle OpLP32,032new5613
2020-05-27 14:02:43N4DWCWopsTSingle OpLP8,633new5613
2020-05-27 14:02:16AC6ZMCWopsTSingle OpHP9,900new5613
 
2020-05-27 14:01:40N8UMCWopsTSingle OpHP18,496new5613
2020-05-27 14:01:24AD4EBCWopsTSingle OpHP30,807new5613
2020-05-27 13:26:41K1GUCWopsTSingle OpHP576new5613
2020-05-25 23:38:12WN8YEU PSKSOSB/20LP1new5600
2020-05-24 22:59:46W4CMGYL DayYLLP13new5607
2020-05-24 19:13:17AC6ZMYL DayOMHP8new5607
2020-05-22 03:08:42W4NZNCCC SprintSingle OpLP1,216new5598
2020-05-22 03:03:38K1GUNCCC SprintSingle OpLP1,634new5598
2020-05-22 03:03:36N4DWNCCC SprintSingle OpLP1,360new5598
2020-05-21 04:17:17K4ROCWopsTSingle OpHP29,256new5592
 
2020-05-21 04:10:04K3IECWopsTSingle OpHP9,888new5594
2020-05-21 04:06:30AC6ZMCWopsTSingle OpHP11,881new5594
2020-05-21 04:05:34K3FHCWopsTSingle OpHP3,074new5594
2020-05-21 04:03:51N4ZZCWopsTSingle OpLP18,669new5594
2020-05-21 04:02:03N8UMCWopsTSingle OpHP14,157new5594
2020-05-21 04:01:48AD4EBCWopsTSingle OpHP36,157new5594
2020-05-21 04:01:01K4ROCWopsTSingle OpHP41,032new5594
2020-05-21 03:33:26K1GUCWopsTSingle OpHP4,761new5594
2020-05-20 20:17:46W4UTCWopsTSingle OpHP4,030new5593
2020-05-20 20:06:34NS4XCWopsTSingle OpHP5,329new5593
 
2020-05-20 20:03:23N4ZZCWopsTSingle OpLP28,350new5593
2020-05-20 20:02:50N8UMCWopsTSingle OpHP16,129new5593
2020-05-20 20:02:39K1GUCWopsTSingle OpHP15,625new5593
2020-05-20 20:02:27AC6ZMCWopsTSingle OpHP12,544new5593
2020-05-20 20:02:04K4TZCWopsTSingle OpLP2,025new5593
2020-05-20 20:01:56K4ROCWopsTSingle OpHP46,258new5593
2020-05-20 20:01:29AD4EBCWopsTSingle OpHP35,223new5593
2020-05-20 16:45:46NS4XCWopsTSingle OpHP961new5592
2020-05-20 14:08:11K3FHCWopsTSingle OpHP1,369new5592
2020-05-20 14:04:46W3TBCWopsTSingle OpHP12,769new5592
 
2020-05-20 14:04:08N4ZZCWopsTSingle OpLP32,761new5592
2020-05-20 14:03:17K4TZCWopsTSingle OpLP4,761new5592
2020-05-20 14:03:08K1GUCWopsTSingle OpHP22,801new5592
2020-05-20 14:02:59AC6ZMCWopsTSingle OpHP361new5592
2020-05-20 14:01:41AD4EBCWopsTSingle OpHP36,260new5592
2020-05-20 14:01:22N8UMCWopsTSingle OpHP19,600new5592
2020-05-18 22:34:47W4NZHamventionSingle OpHP133new5569
2020-05-18 17:42:14K4TZHamventionSingle OpLP53update5569
2020-05-18 05:19:47AC6ZMKing of Spain CWSOSB/40HP4,200new5583
2020-05-18 00:17:49AD4EBHamventionSingle OpHP218new5569
 
2020-05-17 20:45:53KA4OTBHamventionSingle OpHP39new5569
2020-05-17 17:44:56WN8YHamventionSingle OpLP128new5569
2020-05-17 16:13:31AA4DDKing of Spain CWSOABHP16,050new5583
2020-05-17 13:06:54WB5WAJHamventionSingle OpHP73new5569
2020-05-17 02:42:42WA4VGZHamventionSingle OpLP26new5569
2020-05-17 01:05:23KS4XHamventionSingle OpLP17new5569
2020-05-17 00:42:53W4KWHamventionSingle OpHP384new5569
2020-05-17 00:33:13K3FHHamventionSingle OpHP130new5569
2020-05-17 00:13:15K4ROHamventionSingle OpHP515new5569
2020-05-17 00:12:43AC6ZMHamventionSingle OpHP351new5569
 
2020-05-17 00:10:33N4BCDHamventionSingle OpHP390new5569
2020-05-17 00:10:08W4UTHamventionSingle OpLP133new5569
2020-05-16 23:49:14W4CMGHamventionSingle OpLP29update5569
2020-05-16 23:33:08K1GUHamventionSingle OpHP51new5569
2020-05-16 23:31:01K0EJHamventionSingle OpHP1,028new5569
2020-05-16 22:53:43W3TBHamventionSingle OpHP135new5569
2020-05-15 03:27:10N4DWCWopsTSingle OpLP324new5576
2020-05-15 03:13:19K1GUNCCC SprintSingle OpLP756new5580
2020-05-15 03:10:31N4DWNCCC SprintSingle OpLP1,120new5580
2020-05-15 00:19:16WK9MCWopsTSingle OpLP1,296new5576
 
2020-05-14 04:44:48K3FHCWopsTSingle OpHP1,804new5576
2020-05-14 04:05:51K3IECWopsTSingle OpLP5,159new5576
2020-05-14 04:04:52K4TZCWopsTSingle OpLP2,024new5576
2020-05-14 04:02:31N4ZZCWopsTSingle OpLP18,144new5576
2020-05-14 04:02:15AC6ZMCWopsTSingle OpHP9,604new5576
2020-05-14 04:01:33K4ROCWopsTSingle OpHP39,248new5576
2020-05-14 04:01:11K1GUCWopsTSingle OpHP10,404new5576
2020-05-14 04:01:02AD4EBCWopsTSingle OpHP31,845new5576
2020-05-13 21:27:06W4UTCWopsTSingle OpHP4,352new5575
2020-05-13 20:30:21NS4XCWopsTSingle OpHP3,969new5575
 
2020-05-13 20:26:13NS4XCWopsTSingle OpHP1,296new5574
2020-05-13 20:06:07AC6ZMCWopsTSingle OpHP5,550new5575
2020-05-13 20:03:45K3FHCWopsTSingle OpHP784new5575
2020-05-13 20:03:01AD4EBCWopsTSingle OpHP38,640new5575
2020-05-13 20:02:53K1GUCWopsTSingle OpHP9,409new5575
2020-05-13 20:02:38N4ZZCWopsTSingle OpLP24,272new5575
2020-05-13 20:02:00K4TZCWopsTSingle OpLP1,681new5575
2020-05-13 20:01:31N4DWCWopsTSingle OpLP324new5575
2020-05-13 20:01:09K4ROCWopsTSingle OpHP52,245new5575
2020-05-13 14:19:22K4TZCWopsTSingle OpLP3,136new5574
 
2020-05-13 14:04:25K3FHCWopsTSingle OpHP812new5574
2020-05-13 14:04:08W3TBCWopsTSingle OpHP484new5574
2020-05-13 14:03:23N4ZZCWopsTSingle OpLP26,376new5574
2020-05-13 14:01:39AD4EBCWopsTSingle OpHP30,227new5574
2020-05-13 14:01:04K4ROCWopsTSingle OpHP39,083new5574
2020-05-13 13:40:02K1GUCWopsTSingle OpHP2,601new5574
2020-05-11 04:21:48AC6ZMNewEngQPSingle OpHP23,244update5547
2020-05-11 04:21:05AC6ZMDeQPSingle OpHP440update5546
2020-05-11 04:20:31AC6ZM7QPSO(A)MixedHP51,538update5544
2020-05-11 02:34:38AC6ZMArQPSOMixedHP2,240update5565
 
2020-05-11 00:41:57W4BCGVolta RTTYSOABHP69,552new5563
2020-05-10 23:53:53AC6ZMCQ-MSOABCWHP34,496new5564
2020-05-10 20:08:57WN8YVolta RTTYSOABLP121,410new5563
2020-05-10 17:40:47AA4DDArQPSOCWHP320new5565
2020-05-10 17:36:22AA4DDVolta RTTYSOABHP59,083,904new5563
2020-05-10 17:34:56K4TZCQ-MSOABCWLP210new5564
2020-05-10 16:00:41NS4XVolta RTTYSOABHP7,253,478new5563
2020-05-10 15:56:51NS4XArQPSOMixedHP250new5565
2020-05-10 15:37:14K3FHVolta RTTYSOABHP6,935,000new5563
2020-05-10 15:26:34W4XKArQPSOCWLP532update5565
 
2020-05-10 15:11:13WB5WAJArQPSOMixedHP888new5565
2020-05-10 15:10:55WT4BTInQPSingle OpLP12new5545
2020-05-10 15:03:58WT4BT7QPSOSSBLP544new5544
2020-05-10 15:01:57KA4OTBArQPSOSSBHP860new5565
2020-05-10 14:45:37WT4BTArQPSOSSBLP49new5565
2020-05-10 13:13:29K4AMCArQPSOCWHP3,540new5565
2020-05-10 13:00:28KS4XArQPSOMixedLP1,323new5565
2020-05-10 12:07:08AB4GGCQ-MSOABCWLP1,560new5564
2020-05-10 12:00:19AB4GGVolta RTTYSOABLP1,015,087new5563
2020-05-10 11:57:36N8UMCQ-MSOABCWHP42,525new5564
 
2020-05-10 11:47:23AB4GGArQPSOMixedLP1,748new5565
2020-05-10 02:30:16KC1DWPArQPSOSSBLP42new5565
2020-05-10 02:23:58W4UTArQPSOMixedHP4,323new5565
2020-05-10 02:10:34W4KWArQPSOSSBHP375new5565
2020-05-10 01:17:08AD4EBNewEngQPSingle OpLP7,980new5547
2020-05-08 03:04:43K1GUNCCC SprintSingle OpLP1,036new5562
2020-05-08 03:02:06AC6ZMNCCC SprintSingle OpHP9new5562
2020-05-08 03:01:44N4DW(M4DW)NCCC SprintSingle OpLP1,287new5562
2020-05-07 20:26:44W4TTMNewEngQPSingle OpLP6,336new5547
2020-05-07 20:22:43W4TTM7QPSO(A)CWLP3,672new5544
 
2020-05-07 13:44:33K4ROInQPSingle OpLP84new5545
2020-05-07 13:43:37K4RONewEngQPSingle OpLP9,044new5547
2020-05-07 13:42:40K4RODeQPSingle OpLP480new5546
2020-05-07 13:41:42K4RO7QPSOCWLP25,254new5544
2020-05-07 04:31:36AC6ZMCWopsTSingle OpHP8,649new5559
2020-05-07 04:05:35K3FHCWopsTSingle OpHP3,481new5559
2020-05-07 04:04:07N4ZZCWopsTSingle OpLP24,843new5559
2020-05-07 04:02:43K4TZCWopsTSingle OpLP3,906new5559
2020-05-07 04:02:12N8UMCWopsTSingle OpHP16,104new5559
2020-05-07 04:02:03AD4EBCWopsTSingle OpHP34,125new5559
 
2020-05-07 03:46:17K1GUCWopsTSingle OpHP2,601new5559
2020-05-06 20:49:43K0EJCWopsTSingle OpLP13,920new5558
2020-05-06 20:44:01W4UTCWopsTSingle OpHP2,068new5558
2020-05-06 20:22:16K3FHCWopsTSingle OpHP1,849new5558
2020-05-06 20:12:02NS4XCWopsTSingle OpHP3,480new5558
2020-05-06 20:06:17AC6ZMCWopsTSingle OpLP5,625new5558
2020-05-06 20:03:53W3TBCWopsTSingle OpLP3,481new5558
2020-05-06 20:02:38K1GUCWopsTSingle OpHP9,025new5558
2020-05-06 20:01:57N4DWCWopsTSingle OpLP1,024new5558
2020-05-06 20:01:19N8UMCWopsTSingle OpHP14,641new5558
 
2020-05-06 20:01:13K4TZCWopsTSingle OpLP1,600new5558
2020-05-06 20:00:57K4ROCWopsTSingle OpHP45,968new5558
2020-05-06 19:55:31N4ZZCWopsTSingle OpLP1,332new5558
2020-05-06 18:02:13K4AMCNewEngQPSingle OpHP16,008new5547
2020-05-06 17:35:25NS4XCWopsTSingle OpHP3,249new5557
2020-05-06 14:08:25AC6ZMCWopsTSingle OpHP676new5557
2020-05-06 14:04:23K4TZCWopsTSingle OpLP4,489new5557
2020-05-06 14:04:20N4ZZCWopsTSingle OpLP29,410new5557
2020-05-06 14:02:54K1GUCWopsTSingle OpHP8,100new5557
2020-05-06 14:02:37K4ROCWopsTSingle OpHP34,547new5557
 
2020-05-06 14:02:09N8UMCWopsTSingle OpHP20,164new5557
2020-05-06 14:01:56N4DWCWopsTSingle OpLP5,840new5557
2020-05-06 14:01:56AD4EBCWopsTSingle OpHP36,848new5557
2020-05-06 13:59:42K3FHCWopsTSingle OpHP1,936new5557
2020-05-06 13:47:41K3IENewEngQPSingle OpHP7,992new5547
2020-05-06 13:45:20K3IEInQPSingle OpHP208new5545
2020-05-06 13:44:02K3IE7QPSO(A)CWHP8,658new5544
2020-05-06 12:01:24K4AMC7QPSO(A)CWHP26,082new5544
2020-05-05 17:55:33K4AMCInQPSingle OpHP1,280new5545
2020-05-05 14:45:07KA4OTBNewEngQPSingle OpHP1,120new5547
 
2020-05-05 14:42:18KA4OTBInQPSingle OpHP42new5545
2020-05-05 14:40:08KA4OTB7QPSOSSBHP1,536new5544
2020-05-05 13:43:26K4AMCDeQPSingle OpHP400new5546
2020-05-05 00:26:04WB5WAJInQPSingle OpHP108new5545
2020-05-05 00:21:38WB5WAJNewEngQPSingle OpHP1,508new5547
2020-05-05 00:15:39WB5WAJ7QPSOSSBHP5,328new5544
2020-05-04 23:00:14AB4GGNewEngQPSingle OpLP5,076new5547
2020-05-04 22:57:57AB4GGInQPSingle OpLP28new5545
2020-05-04 22:56:00AB4GGDeQPSingle OpLP120new5546
2020-05-04 22:52:56AB4GG7QPSOMixedLP8,282new5544
 
2020-05-04 21:12:46K3FHNewEngQPSingle OpHP2,592update5547
2020-05-04 20:37:20N4ARONewEngQPSingle OpLP12,604new5547
2020-05-04 20:31:39N4ARO7QPSOMixedLP19,415new5544
2020-05-04 18:58:12K3FHARISO CWHP250new5543
2020-05-04 18:45:15K3FHInQPSingle OpHP32new5545
2020-05-04 17:33:13W4KWNewEngQPSingle OpHP256new5547
2020-05-04 16:37:21K4TZNewEngQPSingle OpLP504new5547
2020-05-04 15:35:09W4XKDeQPSingle OpLP960update5546
2020-05-04 15:34:28W3TBInQPSingle OpHP168update5545
2020-05-04 12:27:14KS4XNewEngQPSingle OpLP6,478new5547
 
2020-05-04 12:25:30KS4XInQPSingle OpLP266new5545
2020-05-04 12:23:41KS4X7QPSOMixedLP11,115new5544
2020-05-04 04:33:51AA4DDARISO MixedHP52,800new5543
2020-05-04 04:14:27AA4DDNewEngQPSingle OpHP9,360new5547
2020-05-04 04:06:35AA4DD7QPSO(A)CWHP5,440new5544
2020-05-04 02:20:51KC1DWPNewEngQPSingle OpLP180new5547
2020-05-04 02:09:53W3TBNewEngQPSingle OpHP3,172new5547
2020-05-04 02:07:14W3TBDeQPSingle OpHP180new5546
2020-05-04 02:02:53W3TB7QPSO(A)CWHP8,658new5544
2020-05-04 02:01:35W4UTInQPSingle OpHP300new5545
 
2020-05-04 01:50:32W4NZNewEngQPSingle OpHP16,456new5547
2020-05-04 01:50:27W4UTNewEngQPSingle OpHP12,465new5547
2020-05-04 01:47:32W4NZInQPSingle OpHP494new5545
2020-05-04 01:44:34W4NZDeQPSingle OpHP900new5546
2020-05-04 01:39:36W4NZ7QPSO(A)CWHP23,016new5544
2020-05-04 01:39:31W4XKNewEngQPSingle OpLP12,160new5547
2020-05-04 01:22:54N8UMNewEngQPSingle OpHP26,602new5547
2020-05-04 01:21:46W4XK7QPSOCWLP4,116new5544
2020-05-04 01:20:18W4UT7QPSOMixedHP33,865new5544
2020-05-04 01:16:06N8UM7QPSO(A)CWHP37,440new5544
 
2020-05-04 01:05:31W4XKInQPSingle OpLP930new5545
2020-05-04 00:56:39N4VVInQPSingle OpHP572new5545
2020-05-04 00:51:48N4VVNewEngQPSingle OpHP6,600new5547
2020-05-04 00:46:11N4VVDeQPSingle OpHP20new5546
2020-05-04 00:38:45N4VV7QPSO(A)CWHP20,580new5544
2020-05-04 00:18:30K1GUNewEngQPSingle OpHP10,720new5547
2020-05-04 00:01:38NS4XDeQPSingle OpHP20new5546
2020-05-03 23:59:10NS4X7QPSO(A)CWHP2,673new5544
2020-05-03 23:56:56NS4XNewEngQPSingle OpHP144new5547
2020-05-03 22:40:03K0EJNewEngQPSingle OpLP4,428new5547
 
2020-05-03 21:00:02WN8YARISO MixedLP1,235new5543
2020-05-03 20:15:02AC6ZMInQPSingle OpHP901new5545
2020-05-03 18:37:16K3FH7QPSO(A)CWHP6,480new5544
2020-05-03 17:51:35KC1DWP7QPSOSSBHP4new5544
2020-05-03 17:42:04KC1DWPInQPSingle OpHP64new5545
2020-05-03 12:46:37W4KW7QPSO(A)SSBHP51,680new5544
2020-05-01 11:47:35K3FHBARTG 75Single OpHP12new5522
2020-05-01 11:45:42K3FHSPDX RTTYSOABHP44,080new5520
2020-05-01 03:08:02K1GUNCCC SprintSingle OpLP754new5540
2020-05-01 03:01:49N4DWNCCC SprintSingle OpLP800new5540
 
2020-04-30 04:11:48AC6ZMCWopsTSingle OpHP5,041new5537
2020-04-30 04:07:18K1GUCWopsTSingle OpHP11,881new5537
2020-04-30 04:03:32N4ZZCWopsTSingle OpLP20,216new5537
2020-04-30 04:02:56K4TZCWopsTSingle OpLP1,296new5537
2020-04-30 04:02:22AD4EBCWopsTSingle OpHP27,846new5537
2020-04-30 04:02:04K3IECWopsTSingle OpHP5,382new5537
2020-04-30 04:01:30N8UMCWopsTSingle OpHP14,274new5537
2020-04-30 04:00:54K4ROCWopsTSingle OpHP33,734new5537
2020-04-30 03:42:44K3FHCWopsTSingle OpHP1,444new5537
2020-04-30 01:00:26AC6ZMOnQPSO CWHP598update5507
 
2020-04-29 20:28:10K3FHCWopsTSingle OpHP2,500new5536
2020-04-29 20:06:27AC6ZMCWopsTSingle OpHP8,556new5536
2020-04-29 20:06:02AD4EBCWopsTSingle OpHP29,370new5536
2020-04-29 20:04:26W3TBCWopsTSingle OpLP6,724new5536
2020-04-29 20:03:30NS4XCWopsTSingle OpHP2,809new5536
2020-04-29 20:03:29N4ZZCWopsTSingle OpLP25,758new5536
2020-04-29 20:02:06K4TZCWopsTSingle OpLP1,088new5536
2020-04-29 20:02:01N8UMCWopsTSingle OpHP14,160new5536
2020-04-29 20:01:19K4ROCWopsTSingle OpHP41,535new5536
2020-04-29 20:01:18K1GUCWopsTSingle OpHP17,956new5536
 
2020-04-29 19:59:40K0EJCWopsTSingle OpLP2,550new5536
2020-04-29 14:16:59N4DWCWopsTSingle OpLP9,300new5535
2020-04-29 14:14:50AC6ZMCWopsTSingle OpHP10,000new5535
2020-04-29 14:12:29K3IECWopsTSingle OpHP324new5535
2020-04-29 14:06:51K4TZCWopsTSingle OpLP3,844new5535
2020-04-29 14:05:31W3TBCWopsTSingle OpLP1,600new5535
2020-04-29 14:03:37AD4EBCWopsTSingle OpHP26,887new5535
2020-04-29 14:03:08N8UMCWopsTSingle OpHP17,000new5535
2020-04-29 14:03:05N4ZZCWopsTSingle OpLP28,215new5535
2020-04-29 14:02:57K1GUCWopsTSingle OpHP20,164new5535
 
2020-04-29 14:02:37K4ROCWopsTSingle OpHP32,424new5535
2020-04-28 00:19:32WN8YSPDX RTTYSOABLP4,200new